[[{"header":{"parameterUnit":"m.s-1","parameterCategory":1,"la1":30.2992,"la2":30.254,"lo1":-89.0895,"lo2":-89.0443,"dy":0.0025,"dx":0.0025,"nx":19,"ny":19,"refTime":"2026-05-22T21:00:00:Z","depth":0,"parameterNumber":2,"parameterNumberName":"U-component_of_WINDS"},"data":[0,0,0,-2.8032,-2.8035,-2.8178,-2.8179,-2.837,-2.8372,0,0,0,0,0,0,0,0,0,0,0,-2.7989,-2.799,-2.8031,-2.8035,-2.8178,-2.8179,-2.837,-2.8372,0,0,0,0,0,0,0,0,0,0,0,-2.7988,-2.7989,-2.7991,-2.8036,-2.8178,-2.8179,-2.837,-2.826,0,0,0,0,0,0,0,0,0,0,-2.812,-2.8078,-2.7989,-2.7991,-2.8036,-2.8178,-2.8179,-2.8255,-2.8267,-2.8307,0,-2.8338,0,-2.8358,-2.8385,-2.8385,0,0,0,-2.8037,-2.8068,-2.8106,-2.7991,-2.8038,-2.8177,-2.8114,-2.8261,-2.8275,-2.8323,-2.8341,-2.8348,-2.8361,-2.8386,-2.8387,-2.8601,-2.8602,0,0,-2.8029,-2.8015,-2.8097,-2.8115,-2.8087,-2.8109,-2.8118,-2.827,-2.829,-2.8341,-2.8352,-2.8364,-2.8387,-2.8389,-2.86,-2.8601,0,0,0,-2.8005,-2.801,-2.8045,-2.8107,-2.8132,-2.8114,-2.8124,-2.8283,-2.8295,-2.8354,-2.8366,-2.8388,-2.8391,-2.8599,-2.8601,-2.8629,0,0,0,-2.8,-2.7996,-2.8041,-2.8034,-2.8129,-2.8208,-2.8134,-2.8285,-2.8302,-2.8365,-2.8388,-2.8393,-2.8598,-2.86,-2.8626,-2.8644,0,0,0,-2.798,-2.7993,-2.8013,-2.8033,-2.8093,-2.8206,-2.8227,-2.8289,-2.831,-2.8386,-2.8393,-2.8598,-2.86,-2.8623,-2.864,-2.8695,0,0,0,-2.7955,-2.8038,-2.8013,-2.8112,-2.8092,-2.8221,-2.8226,-2.8324,-2.8393,-2.8389,-2.8598,-2.8601,-2.8622,-2.8637,-2.8692,-2.8737,-2.8755,0,0,-2.8053,-2.805,-2.8109,-2.8091,-2.8219,-2.82,-2.8336,-2.8415,-2.8438,-2.8547,-2.8553,-2.8627,-2.864,-2.8695,-2.8862,-2.8876,0,0,0,-2.8136,-2.8178,-2.8215,-2.8277,-2.8337,-2.8391,-2.845,-2.848,-2.8572,-2.8489,-2.8663,-2.8672,-2.8704,-2.8727,-2.8738,-2.8768,-2.8611,-2.861,-2.861,-2.8253,-2.8275,-2.8375,-2.8415,-2.8476,-2.8536,-2.8589,-2.8641,-2.8648,-2.8689,-2.8721,-2.8819,-2.8844,-2.8853,-2.8884,-2.8748,-2.8748,-2.8748,-2.8749,-2.8398,-2.846,-2.8466,-2.8565,-2.859,-2.8676,-2.874,-2.8742,-2.8829,-2.8797,-2.8827,-2.8788,-2.8867,-2.8895,-2.8751,-2.8751,-2.875,-2.875,-2.875,-2.8475,-2.8509,-2.8541,-2.8634,-2.8705,-2.8746,-2.8827,-2.8849,-2.8871,-2.8901,-2.8937,-2.8937,-2.8939,-2.8917,-2.8918,-2.8918,-2.8918,-2.8919,-2.8919,-2.8541,-2.8577,-2.864,-2.8711,-2.8755,-2.8816,-2.888,-2.8926,-2.8982,-2.8992,-2.8993,-2.8996,-2.8871,-2.8838,-2.8924,-2.8923,-2.8923,-2.8922,-2.8922,-2.8676,-2.8649,-2.8746,-2.8789,-2.8876,-2.8946,-2.8973,-2.9065,-2.9107,-2.9147,-2.9146,-2.9049,-2.9049,-2.904,-2.9013,-2.914,-2.914,-2.914,-2.914,-2.874,-2.8742,-2.8845,-2.8914,-2.8984,-2.9018,-2.9133,-2.9186,-2.9238,-2.9266,-2.9252,-2.9219,-2.9209,-2.9215,-2.9202,-2.9177,-2.9342,-2.9343,-2.9343,-2.8824,-2.8833,-2.8922,-2.8967,-2.9038,-2.9099,-2.9208,-2.9292,-2.9346,-2.9352,-2.9289,-2.9281,-2.9227,-2.9209,-2.9209,-2.9189,-2.9143,0,0]},{"header":{"parameterUnit":"m.s-1","parameterCategory":1,"la1":30.2992,"la2":30.254,"lo1":-89.0895,"lo2":-89.0443,"dy":0.0025,"dx":0.0025,"nx":19,"ny":19,"refTime":"2026-05-22T21:00:00:Z","depth":0,"parameterNumber":3,"parameterNumberName":"V-component_of_WINDS"},"data":[0,0,0,2.8848,2.8849,2.8917,2.8917,2.8977,2.8977,0,0,0,0,0,0,0,0,0,0,0,2.8811,2.881,2.8848,2.8849,2.8917,2.8917,2.8977,2.8977,0,0,0,0,0,0,0,0,0,0,0,2.8811,2.881,2.881,2.885,2.8917,2.8917,2.8977,2.8936,0,0,0,0,0,0,0,0,0,0,2.8875,2.8822,2.881,2.881,2.885,2.8917,2.8918,2.8934,2.8938,2.8934,0,2.8925,0,2.8952,2.8979,2.8979,0,0,0,2.8863,2.8819,2.8853,2.881,2.885,2.8917,2.889,2.8937,2.8941,2.8939,2.8926,2.8929,2.8953,2.898,2.898,2.891,2.8909,0,0,2.8859,2.8813,2.885,2.8855,2.8841,2.8888,2.8892,2.894,2.8923,2.8926,2.8931,2.8954,2.898,2.898,2.8911,2.891,0,0,0,2.8839,2.881,2.8844,2.8852,2.8866,2.889,2.8895,2.8921,2.8935,2.8932,2.8954,2.898,2.898,2.8912,2.891,2.8818,0,0,0,2.8838,2.8799,2.8842,2.8814,2.8864,2.8894,2.8873,2.8932,2.8939,2.8954,2.898,2.8981,2.8913,2.8911,2.8822,2.8781,0,0,0,2.8812,2.8796,2.88,2.8812,2.8839,2.8894,2.8912,2.8935,2.8952,2.8979,2.8981,2.8914,2.8912,2.8827,2.8788,2.8749,0,0,0,2.8772,2.8716,2.8797,2.8744,2.8838,2.8836,2.8912,2.8914,2.8926,2.898,2.8913,2.8911,2.8828,2.8793,2.8753,2.8706,2.8683,0,0,2.8676,2.8703,2.8676,2.875,2.8722,2.8829,2.8789,2.8844,2.8889,2.8901,2.89,2.8821,2.8789,2.875,2.8569,2.8549,0,0,0,2.863,2.8609,2.8612,2.8621,2.8662,2.8694,2.876,2.8782,2.8794,2.8885,2.8798,2.878,2.8759,2.8739,2.8723,2.8708,2.89,2.89,2.89,2.8427,2.8488,2.8447,2.8515,2.8524,2.8594,2.8607,2.8647,2.8706,2.8685,2.8688,2.857,2.8545,2.8533,2.8517,2.867,2.8669,2.8669,2.8669,2.8291,2.8271,2.8352,2.8341,2.8406,2.8398,2.8464,2.8507,2.8509,2.8573,2.8558,2.862,2.851,2.8499,2.8662,2.8663,2.8664,2.8665,2.8665,2.8164,2.8165,2.8192,2.8212,2.8222,2.8296,2.8294,2.8354,2.8411,2.8396,2.8406,2.8408,2.8416,2.8397,2.8397,2.8396,2.8396,2.8396,2.8395,2.802,2.8054,2.8044,2.8084,2.8099,2.8126,2.8197,2.8214,2.8248,2.8292,2.8293,2.8353,2.8488,2.852,2.8389,2.839,2.8391,2.8392,2.8392,2.7858,2.7905,2.789,2.7904,2.7957,2.7963,2.8041,2.807,2.8093,2.809,2.8156,2.8246,2.8278,2.8292,2.8318,2.8143,2.8143,2.8143,2.8143,2.7749,2.7772,2.7771,2.7791,2.7817,2.7886,2.787,2.7926,2.7991,2.8009,2.8044,2.8085,2.8096,2.8122,2.8139,2.8165,2.7954,2.7954,2.7954,2.7653,2.7681,2.7653,2.7717,2.7763,2.7802,2.7788,2.7809,2.7893,2.7948,2.8025,2.8033,2.81,2.8119,2.8173,2.8198,2.8247,0,0]}]]